Location: Zagreb
(45.8000°N, 16.0000°E)
Time: 16:31:37
(UTC+01:00)

Tiros 1 despin weight - Pass Details

Date: 01 February 2020
Orbit: 594 x 642 km, 48.2° (Epoch: 25 February)

Event Time Altitude Azimuth Distance (km) Brightness Sun altitude
Rises 09:11:41 0° 240° (WSW) 2,832 ? 15.3°
Reaches altitude 10° 09:13:57 10° 238° (WSW) 1,938 ? 15.5°
Maximum altitude 09:18:22 68° 156° (SSE) 654 ? 16.1°
Drops below altitude 10° 09:22:52 10° 73° (ENE) 1,972 ? 16.6°
Sets 09:25:12 0° 71° (ENE) 2,887 ? 16.9°
